sat.trackr.live / text

‹ back to catalog

XIWANG-5 02

NORAD 67069 · 2025-296A

PAYLOAD ACTIVE UNKNOWN

§ Identity

Operator
Country
PRC
Launch date
2025-12-13
Launch site
JSC
Launch vehicle
Mass (kg)
RCS (m²)

External: N2YO · Heavens-Above · Gunter

§ Orbital elements

Epoch: 2026-09-20T03:12:19.718784Z

Period
94.87 min
Inclination
41.3522°
Eccentricity
0.0004234
Mean motion
15.17839361 rev/d
Perigee alt
509.5 km
Apogee alt
515.3 km
Semi-major
6,890.5 km
B*
2.6057e-4
RAAN
299.4778°
Arg perigee
59.8532°
Mean anomaly
300.2709°
Rev number
4,266

§ Raw data

XIWANG-5 021 67069U 25296A   26263.13356156  .00005177  00000+0  26057-3 0  99932 67069  41.3522 299.4778 0004234  59.8532 300.2709 15.17839361 42661

JSON: /api/v1/satellites/67069 · /tle

For live sub-satellite position, see the globe view (requires WebGL).

§ Visibility from observer

Set your observer location to see the next 7 days of passes ≥ 10°. The values pass through the URL so the page stays shareable.

No JS? Fill the form by hand. The geolocation button needs JavaScript.